N18841 -KSAN

Flight info

Callsign N18841
Flight time N/A
Altitude VFR/035
Route
Aircraft BE24/L-VGD/C

Departure

Time N/A
Airport -

Arrival

Time 2026-05-05 04:17
Airport San Diego International Airport (KSAN)
Time Latitude Longitude Altitude Speed Heading
2026-05-05 03:44 33.58477 -117.07052 6540 ft 131 kts 199°
2026-05-05 03:44 33.57595 -117.07314 6543 ft 130 kts 200°
2026-05-05 03:44 33.56714 -117.07582 6543 ft 130 kts 200°
2026-05-05 03:45 33.55836 -117.07849 6537 ft 130 kts 200°
2026-05-05 03:45 33.54957 -117.08120 6542 ft 130 kts 200°
2026-05-05 03:45 33.54079 -117.08389 6540 ft 130 kts 200°
2026-05-05 03:45 33.53204 -117.08659 6540 ft 130 kts 200°
2026-05-05 03:46 33.52330 -117.08932 6535 ft 130 kts 200°
2026-05-05 03:46 33.51456 -117.09203 6542 ft 130 kts 200°
2026-05-05 03:46 33.50582 -117.09476 6545 ft 130 kts 200°
2026-05-05 03:46 33.49708 -117.09745 6541 ft 130 kts 200°
2026-05-05 03:47 33.48846 -117.10011 6534 ft 129 kts 200°
2026-05-05 03:47 33.47974 -117.10283 6528 ft 129 kts 200°
2026-05-05 03:47 33.47105 -117.10555 6524 ft 129 kts 200°
2026-05-05 03:47 33.46236 -117.10827 6523 ft 129 kts 200°
2026-05-05 03:48 33.45366 -117.11100 6520 ft 129 kts 199°
2026-05-05 03:48 33.44500 -117.11371 6514 ft 128 kts 200°
2026-05-05 03:48 33.43638 -117.11640 6519 ft 128 kts 200°
2026-05-05 03:48 33.42776 -117.11915 6512 ft 128 kts 200°
2026-05-05 03:49 33.41913 -117.12183 6493 ft 128 kts 200°
2026-05-05 03:49 33.41065 -117.12453 6447 ft 125 kts 200°
2026-05-05 03:49 33.40217 -117.12718 6448 ft 127 kts 200°
2026-05-05 03:49 33.39359 -117.12983 6463 ft 128 kts 200°
2026-05-05 03:50 33.38495 -117.13253 6476 ft 128 kts 200°
2026-05-05 03:50 33.37629 -117.13525 6492 ft 129 kts 200°
2026-05-05 03:50 33.36756 -117.13805 6509 ft 131 kts 200°
2026-05-05 03:50 33.35894 -117.14080 6486 ft 129 kts 200°
2026-05-05 03:51 33.35041 -117.14385 6477 ft 126 kts 205°
2026-05-05 03:51 33.34223 -117.14784 6495 ft 127 kts 208°
2026-05-05 03:51 33.33416 -117.15213 6496 ft 127 kts 209°
2026-05-05 03:51 33.32617 -117.15649 6493 ft 126 kts 210°
2026-05-05 03:52 33.31817 -117.16093 6497 ft 126 kts 210°
2026-05-05 03:52 33.31020 -117.16540 6504 ft 127 kts 210°
2026-05-05 03:52 33.30220 -117.16988 6515 ft 127 kts 210°
2026-05-05 03:52 33.29434 -117.17431 6509 ft 126 kts 210°
2026-05-05 03:53 33.28642 -117.17891 6509 ft 126 kts 210°
2026-05-05 03:53 33.27849 -117.18353 6513 ft 127 kts 210°
2026-05-05 03:53 33.27056 -117.18818 6511 ft 127 kts 210°
2026-05-05 03:53 33.26267 -117.19284 6504 ft 127 kts 210°
2026-05-05 03:54 33.25475 -117.19752 6511 ft 127 kts 210°
2026-05-05 03:54 33.24692 -117.20213 6506 ft 127 kts 210°
2026-05-05 03:54 33.23899 -117.20679 6511 ft 127 kts 210°
2026-05-05 03:54 33.23106 -117.21145 6520 ft 127 kts 210°
2026-05-05 03:55 33.22313 -117.21611 6520 ft 127 kts 210°
2026-05-05 03:55 33.21516 -117.22078 6473 ft 129 kts 210°
2026-05-05 03:55 33.20701 -117.22542 6395 ft 130 kts 210°
2026-05-05 03:55 33.19877 -117.23022 6283 ft 132 kts 211°
2026-05-05 03:56 33.19067 -117.23541 6191 ft 131 kts 214°
2026-05-05 03:56 33.18280 -117.24087 6053 ft 131 kts 214°
2026-05-05 03:56 33.17500 -117.24660 5933 ft 132 kts 216°
2026-05-05 03:56 33.16739 -117.25247 5842 ft 132 kts 216°
2026-05-05 03:57 33.15962 -117.25816 5751 ft 130 kts 216°
2026-05-05 03:57 33.15193 -117.26388 5684 ft 131 kts 216°
2026-05-05 03:57 33.14430 -117.26986 5583 ft 131 kts 218°
2026-05-05 03:57 33.13681 -117.27607 5490 ft 132 kts 218°
2026-05-05 03:58 33.12925 -117.28223 5402 ft 131 kts 218°
2026-05-05 03:58 33.12178 -117.28851 5322 ft 131 kts 219°
2026-05-05 03:58 33.11424 -117.29464 5249 ft 132 kts 216°
2026-05-05 03:58 33.10636 -117.30020 5182 ft 132 kts 211°
2026-05-05 03:59 33.09777 -117.30411 5096 ft 134 kts 198°
2026-05-05 03:59 33.08832 -117.30508 4998 ft 138 kts 184°
2026-05-05 03:59 33.07872 -117.30409 4927 ft 139 kts 177°
2026-05-05 03:59 33.06915 -117.30180 4815 ft 142 kts 171°
2026-05-05 04:00 33.05969 -117.29875 4712 ft 143 kts 169°
2026-05-05 04:00 33.05019 -117.29543 4658 ft 141 kts 169°
2026-05-05 04:00 33.04082 -117.29208 4600 ft 140 kts 169°
2026-05-05 04:00 33.03145 -117.28882 4544 ft 140 kts 170°
2026-05-05 04:01 33.02212 -117.28542 4483 ft 141 kts 168°
2026-05-05 04:01 33.01266 -117.28210 4365 ft 142 kts 171°
2026-05-05 04:01 33.00310 -117.27902 4243 ft 143 kts 171°
2026-05-05 04:01 32.99356 -117.27596 4168 ft 140 kts 172°
2026-05-05 04:02 32.98411 -117.27351 4089 ft 139 kts 173°
2026-05-05 04:02 32.97460 -117.27118 3984 ft 139 kts 175°
2026-05-05 04:02 32.96523 -117.26884 3894 ft 140 kts 173°
2026-05-05 04:02 32.95571 -117.26639 3801 ft 139 kts 173°
2026-05-05 04:03 32.94626 -117.26393 3699 ft 139 kts 174°
2026-05-05 04:03 32.93678 -117.26165 3615 ft 137 kts 175°
2026-05-05 04:03 32.92748 -117.25943 3487 ft 138 kts 174°
2026-05-05 04:03 32.91803 -117.25718 3383 ft 137 kts 176°
2026-05-05 04:04 32.90865 -117.25582 3310 ft 135 kts 181°
2026-05-05 04:04 32.89920 -117.25499 3170 ft 137 kts 182°
2026-05-05 04:04 32.88985 -117.25435 3044 ft 136 kts 181°
2026-05-05 04:04 32.88042 -117.25363 2968 ft 134 kts 181°
2026-05-05 04:05 32.87118 -117.25262 2877 ft 134 kts 179°
2026-05-05 04:05 32.86186 -117.25169 2808 ft 133 kts 182°
2026-05-05 04:05 32.85262 -117.25087 2720 ft 132 kts 180°
2026-05-05 04:05 32.84351 -117.24963 2614 ft 132 kts 176°
2026-05-05 04:06 32.83462 -117.24645 2534 ft 131 kts 161°
2026-05-05 04:06 32.82658 -117.24169 2496 ft 131 kts 158°
2026-05-05 04:06 32.81867 -117.23596 2377 ft 134 kts 155°
2026-05-05 04:06 32.81067 -117.23008 2307 ft 136 kts 156°
2026-05-05 04:07 32.80264 -117.22420 2179 ft 136 kts 154°
2026-05-05 04:07 32.79443 -117.21839 2022 ft 138 kts 155°
2026-05-05 04:07 32.78634 -117.21274 1920 ft 132 kts 155°
2026-05-05 04:07 32.77860 -117.20693 1708 ft 131 kts 153°
2026-05-05 04:08 32.77147 -117.20062 1614 ft 123 kts 149°
2026-05-05 04:08 32.76462 -117.19456 1467 ft 123 kts 150°
2026-05-05 04:08 32.75817 -117.18774 1315 ft 124 kts 135°
2026-05-05 04:08 32.75402 -117.17930 1297 ft 113 kts 116°
2026-05-05 04:09 32.75175 -117.17075 1312 ft 104 kts 110°
2026-05-05 04:09 32.75011 -117.16273 1328 ft 98 kts 107°
2026-05-05 04:09 32.74885 -117.15497 1328 ft 96 kts 104°
2026-05-05 04:09 32.74758 -117.14723 1322 ft 94 kts 95°
2026-05-05 04:10 32.74933 -117.14015 1423 ft 88 kts 43°
2026-05-05 04:10 32.75458 -117.13699 1486 ft 86 kts 344°
2026-05-05 04:10 32.75928 -117.14029 1505 ft 80 kts 274°
2026-05-05 04:10 32.75744 -117.14614 1430 ft 87 kts 215°
2026-05-05 04:11 32.75169 -117.14478 1394 ft 95 kts 126°
2026-05-05 04:11 32.74915 -117.13758 1378 ft 94 kts 106°
2026-05-05 04:11 32.74746 -117.13007 1415 ft 94 kts 105°
2026-05-05 04:11 32.74603 -117.12262 1460 ft 92 kts 106°
2026-05-05 04:12 32.74477 -117.11510 1520 ft 93 kts 103°
2026-05-05 04:12 32.74346 -117.10724 1496 ft 100 kts 102°
2026-05-05 04:12 32.74144 -117.09935 1443 ft 98 kts 130°
2026-05-05 04:12 32.73592 -117.09621 1446 ft 86 kts 182°
2026-05-05 04:13 32.73008 -117.09655 1453 ft 82 kts 192°
2026-05-05 04:13 32.72437 -117.09790 1414 ft 87 kts 199°
2026-05-05 04:13 32.71935 -117.10137 1410 ft 84 kts 226°
2026-05-05 04:13 32.71632 -117.10732 1380 ft 86 kts 252°
2026-05-05 04:14 32.71571 -117.11440 1346 ft 87 kts 273°
2026-05-05 04:14 32.71704 -117.12119 1238 ft 78 kts 281°
2026-05-05 04:14 32.71846 -117.12721 1088 ft 74 kts 280°
2026-05-05 04:14 32.71978 -117.13301 995 ft 72 kts 282°
2026-05-05 04:15 32.72102 -117.13846 939 ft 65 kts 283°
2026-05-05 04:15 32.72237 -117.14361 848 ft 67 kts 283°
2026-05-05 04:15 32.72360 -117.14890 704 ft 66 kts 283°
2026-05-05 04:15 32.72491 -117.15381 622 ft 60 kts 283°
2026-05-05 04:16 32.72610 -117.15853 559 ft 58 kts 279°
2026-05-05 04:16 32.72711 -117.16326 500 ft 58 kts 282°
2026-05-05 04:16 32.72819 -117.16761 382 ft 54 kts 281°
2026-05-05 04:16 32.72914 -117.17203 262 ft 59 kts 285°
2026-05-05 04:17 32.73034 -117.17674 123 ft 59 kts 282°
2026-05-05 04:17 32.73145 -117.18107 38 ft 50 kts 281°
2026-05-05 04:17 32.73230 -117.18451 19 ft 35 kts 284°
2026-05-05 04:17 32.73292 -117.18709 17 ft 30 kts 286°
2026-05-05 04:18 32.73403 -117.18809 17 ft 5 kts 25°
2026-05-05 04:18 32.73404 -117.18809 17 ft 0 kts 26°
2026-05-05 04:18 32.73411 -117.18801 17 ft 5 kts 53°
2026-05-05 04:19 32.73417 -117.18744 11 ft 6 kts 99°
2026-05-05 04:19 32.73401 -117.18676 19 ft 13 kts 104°
2026-05-05 04:19 32.73372 -117.18558 19 ft 17 kts 106°
2026-05-05 04:19 32.73336 -117.18408 19 ft 18 kts 109°
2026-05-05 04:20 32.73302 -117.18274 19 ft 16 kts 103°
2026-05-05 04:20 32.73275 -117.18157 19 ft 13 kts 104°
2026-05-05 04:20 32.73252 -117.18066 19 ft 12 kts 108°
2026-05-05 04:20 32.73266 -117.17983 19 ft 11 kts 22°
2026-05-05 04:21 32.73356 -117.17953 19 ft 14 kts
2026-05-05 04:21 32.73451 -117.17952 19 ft 11 kts 83°
2026-05-05 04:21 32.73449 -117.17943 19 ft 0 kts 122°